Regional Weather Roundup
Issued by NWS

Home | Current Version | Previous Version | Graphics & Text | Print | Product List | Glossary On
Versions: 1 2 3 4 5 6 7 8 9 10 11 12 13 14 15 16 17 18 19 20 21 22 23 24 25 26 27 28 29 30 31 32 33 34 35 36 37 38 39 40 41 42 43 44 45 46 47 48 49 50
000
ASUS43 KLSX 212307
RWRMO

WEATHER SUMMARY FOR MISSOURI
NATIONAL WEATHER SERVICE SPRINGFIELD MO
600 PM CDT SUN SEP 21 2014

NOTE: "FAIR" INDICATES FEW OR NO CLOUDS BELOW 12,000 FEET WITH NO
       SIGNIFICANT WEATHER AND/OR OBSTRUCTIONS TO VISIBILITY.
       CURRENT SKY AND/OR WEATHER CONDITIONS ARE NOT AVAILABLE FOR
       CHILLICOTHE AND FARMINGTON.

MOZ001>031-035>038-043-044-053-054-220000-
...NORTHERN AND WESTERN MISSOURI...

CITY           SKY/WX    TMP DP  RH WIND       PRES   REMARKS
KANSAS CTY INT MOSUNNY   72  49  44 NW13      30.16R
KANSAS C DTWN  SUNNY     75  47  36 N12       30.15R
LEE`S SUMMIT   LGT RAIN  73  46  38 N15       30.16R
ST JOSEPH      SUNNY     73  48  41 N10       30.17R
CHILLICOTHE      N/A     73  49  42 VRB5      30.16R
KIRKSVILLE     PTSUNNY   69  50  50 NW9       30.15R

$$
MOZ066>068-077>081-088>096-101>105-220000-
...SOUTHWEST MISSOURI...

CITY           SKY/WX    TMP DP  RH WIND       PRES   REMARKS
SPRINGFIELD    SUNNY     74  48  39 N12       30.12S
JOPLIN         SUNNY     76  49  38 N8        30.13S

$$
MOZ032>034-039>042-045>050-055>058-069>072-220000-
...CENTRAL MISSOURI...

CITY           SKY/WX    TMP DP  RH WIND       PRES   REMARKS
COLUMBIA       SUNNY     71  50  47 N12       30.12R
JEFFERSON CITY SUNNY     74  47  38 N13       30.10R
ROLLA          SUNNY     72  46  39 NW10      30.09R
SEDALIA        SUNNY     74  47  38 N14G22    30.13R
WHITEMAN AFB   SUNNY     73  50  44 N12       30.13R
OSAGE BEACH    SUNNY     73  46  38 NW7       30.11R

$$
MOZ051-052-059>065-220000-
...EAST CENTRAL MISSOURI...

CITY           SKY/WX    TMP DP  RH WIND       PRES   REMARKS
ST LOUIS INTL  MOSUNNY   74  49  41 NW10      30.07R
SPIRIT OF STL  MOSUNNY   73  49  42 NW13      30.06R
ST CHARLES     MOSUNNY   71  49  45 NW10      30.06R

$$
MOZ072>076-082>087-097>100-106>115-220000-
...SOUTH CENTRAL AND SOUTHEAST MISSOURI...

CITY           SKY/WX    TMP DP  RH WIND       PRES   REMARKS
CAPE GIRARDEAU SUNNY     77  48  35 NW8       30.01R
FARMINGTON     SUNNY     73  46  38 NW12      30.07R
POPLAR BLUFF   SUNNY     80  46  30 VRB5      30.01R
WEST PLAINS    SUNNY     76  45  33 NW10      30.09R

$$



USA.gov is the U.S. government's official web portal to all federal, state and local government web resources and services.